Location: East Guldeford
(50.9500°N, 0.7500°E)
Time: 07:46:28
(UTC+00:00)

Cosmos 1833 Rocket - Pass Details

Date: 12 May 2021
Orbit: 831 x 841 km, 71.0° (Epoch: 17 June)

Event Time Altitude Azimuth Distance (km) Brightness Sun altitude
Rises 20:37:17 0° 329° (NNW) 3,408 7.6 -8.5°
Reaches altitude 10° 20:39:44 10° 330° (NNW) 2,470 6.6 -8.8°
Maximum altitude 20:45:25 89° 245° (WSW) 849 2.7 -9.4°
Enters shadow 20:50:48 11° 153° (SSE) 2,350 4.4 -10.0°
